Big Piney, WY

5:39 PM MDT on April 21, 2018 (GMT -0600)
Big Piney-Marbleton

Weather History for KBPI - October, 2011

Change the Weather History Date:

Saturday, October 8, 2011

  Actual Average Record
Temperature  
Mean Temperature 38 °F 41 °F  
Max Temperature 46 °F 59 °F 78 °F (1980)
Min Temperature 32 °F 24 °F 4 °F (2000)
Degree Days  
Heating Degree Days 26 24  
Month to date heating degree days 179  
Since 1 July heating degree days 930  
Cooling Degree Days 0 0  
Month to date cooling degree days 0  
Year to date cooling degree days 35  
Moisture  
Dew Point 33 °F    
Average Humidity 81    
Maximum Humidity 93    
Minimum Humidity 58    
Precipitation  
Precipitation 0.00 in 0.02 in 0.09 in (1993)
Month to date precipitation 0.18  
Year to date precipitation 5.62  
Sea Level Pressure  
Sea Level Pressure 30.11 in    
Wind  
Wind Speed 7 mph (SW)    
Max Wind Speed 13 mph    
Max Gust Speed -    
Visibility 10 miles    
Events Rain , Snow    
T = Trace of Precipitation, MM = Missing Value Source: NWS Daily Summary

Daily Weather History Graph

Daily Weather History Graph

Search for Another Location

Airport or City:

Astronomy

Oct. 08, 2011 Rise Set
Actual Time 7:25 AM MDT 6:50 PM MDT
Civil Twilight 6:57 AM MDT 7:18 PM MDT
Nautical Twilight 6:24 AM MDT 7:50 PM MDT
Astronomical Twilight 5:51 AM MDT 8:23 PM MDT
Moon 5:04 PM MDT (10/8) 4:12 AM MDT (10/8)
Length of Visible Light 12h 21m
Length of Day
11h 24m
Waxing Gibbous, 90% of the Moon is Illuminated
Oct 8
Waxing Gibbous
Oct 11
Full
Oct 19
Last Quarter
Oct 26
New
Nov 2
First Quarter

Hourly Weather History & Observations

Time (MDT) Temp. Windchill Dew Point Humidity Pressure Visibility Wind Dir Wind Speed Gust Speed Precip Events Conditions
12:53 AM 36.0 °F 30.3 °F 32.0 °F 86% 29.97 in 10.0 mi North 6.9 mph - N/A   Overcast
1:53 AM 35.1 °F 29.3 °F 30.9 °F 85% 29.95 in 10.0 mi North 6.9 mph - N/A   Overcast
2:53 AM 32.0 °F 24.2 °F 30.0 °F 92% 29.95 in 10.0 mi North 9.2 mph - N/A   Mostly Cloudy
3:53 AM 33.1 °F 26.9 °F 28.9 °F 85% 29.94 in 10.0 mi North 6.9 mph - N/A   Mostly Cloudy
4:53 AM 34.0 °F 31.0 °F 30.0 °F 85% 29.95 in 10.0 mi NNE 3.5 mph - N/A   Overcast
5:53 AM 36.0 °F 30.3 °F 30.0 °F 79% 29.96 in 10.0 mi North 6.9 mph - N/A   Overcast
6:53 AM 36.0 °F 27.5 °F 30.0 °F 79% 29.98 in 9.0 mi North 12.7 mph - 0.00 in Snow Light Snow
7:53 AM 37.9 °F 30.0 °F 30.0 °F 73% 30.00 in 10.0 mi North 12.7 mph - 0.00 in   Overcast
8:53 AM 39.0 °F 34.0 °F 30.9 °F 73% 30.04 in 10.0 mi NNW 6.9 mph - N/A   Overcast
9:53 AM 39.2 °F 37.0 °F 32.0 °F 75% 30.16 in 10.0 mi SE 3.5 mph - N/A   Overcast
10:53 AM 39.9 °F 35.8 °F 33.1 °F 77% 30.12 in 10.0 mi South 5.8 mph - 0.00 in Rain Light Rain
11:21 AM 39.2 °F 35.9 °F 33.8 °F 81% 30.19 in 10.0 mi SSW 4.6 mph - 0.00 in   Overcast
11:51 AM 39.2 °F 35.9 °F 33.8 °F 81% 30.20 in 10.0 mi SW 4.6 mph - 0.00 in   Overcast
11:53 AM 41.0 °F 36.4 °F 33.8 °F 76% 30.20 in 10.0 mi SSW 6.9 mph - N/A   Overcast
12:23 PM 42.8 °F 40.1 °F 33.8 °F 70% 30.19 in 10.0 mi Variable 4.6 mph - N/A   Overcast
12:53 PM 44.1 °F - 34.0 °F 68% 30.10 in 10.0 mi Calm Calm - N/A   Mostly Cloudy
1:53 PM 45.0 °F 43.5 °F 30.9 °F 58% 30.10 in 10.0 mi Variable 3.5 mph - N/A   Mostly Cloudy
2:53 PM 44.1 °F 38.1 °F 33.1 °F 65% 30.13 in 10.0 mi South 11.5 mph - N/A   Overcast
3:53 PM 42.1 °F 36.1 °F 34.0 °F 73% 30.14 in 10.0 mi SSW 10.4 mph - 0.00 in Rain Light Rain
4:53 PM 39.2 °F 32.0 °F 35.6 °F 87% 30.22 in 10.0 mi SW 11.5 mph - N/A   Overcast
5:53 PM 39.2 °F 35.0 °F 35.6 °F 87% 30.23 in 10.0 mi SSW 5.8 mph - N/A   Overcast
6:53 PM 39.0 °F 32.8 °F 34.0 °F 82% 30.17 in 10.0 mi South 9.2 mph - N/A   Overcast
7:53 PM 37.9 °F 31.5 °F 35.1 °F 89% 30.19 in 10.0 mi South 9.2 mph - N/A   Overcast
8:53 PM 37.9 °F 31.5 °F 35.1 °F 89% 30.19 in 10.0 mi South 9.2 mph - 0.00 in   Overcast
9:53 PM 37.9 °F 31.5 °F 35.1 °F 89% 30.21 in 10.0 mi South 9.2 mph - N/A   Overcast
10:53 PM 37.0 °F 29.8 °F 35.1 °F 93% 30.22 in 10.0 mi South 10.4 mph - 0.00 in   Overcast
11:03 PM 37.4 °F 30.8 °F 35.6 °F 93% 30.29 in 8.0 mi South 9.2 mph - 0.00 in Rain Light Rain
11:53 PM 37.0 °F 29.8 °F 35.1 °F 93% 30.22 in 9.0 mi SSW 10.4 mph - 0.00 in Rain Light Rain